Tracking 31027 objects as of 19-Jul-2025
HD Live streaming from Space Station
objects crossing your sky now

ONEWEB-0118

Track ONEWEB-0118 now!
10-day predictions
ONEWEB-0118 is classified as:


NORAD ID: 47264
Int'l Code: 2020-100G
Perigee: 1,219.8 km
Apogee: 1,221.9 km
Inclination: 87.9 °
Period: 109.7 minutes
Semi major axis: 7591 km
RCS: Unknown
Launch date: December 18, 2020
Source: United Kingdom (UK)
Launch site: VOSTOCHNY COSMODROME (VOSTO)
Your satellite tracking list
ICEYE-X27
Track 1 satellite(s)




NASA's NSSDC Master Catalog

Two Line Element Set (TLE):
1 47264U 20100G   25199.86967690 -.00000304  00000-0 -88163-3 0  9991
2 47264  87.8854  56.9208 0001426  77.9325 282.1964 13.12444909221005
Source of the keplerian elements: AFSPC